Regional Weather Roundup
Issued by NWS

Home | Current Version | Previous Version | Text Only | Print | Product List | Glossary Off
Versions: 1 2 3 4 5 6 7 8 9 10 11 12 13 14 15 16 17 18 19 20 21 22 23 24 25 26 27 28 29 30 31 32 33 34 35 36 37 38 39 40 41 42 43 44 45 46 47 48 49 50

000
ASUS43 KMKX 221500
RWRWI

WISCONSIN REGIONAL WEATHER ROUNDUP
NATIONAL WEATHER SERVICE MILWAUKEE/SULLIVAN WI
1000 AM CDT TUE AUG 22 2017

NOTE: "FAIR" INDICATES FEW OR NO CLOUDS BELOW 12,000 FEET WITH NO
SIGNIFICANT WEATHER AND/OR OBSTRUCTIONS TO VISIBILITY.

WIZ001-002-006>008-014>016-023>028-221600-
NORTHWEST WISCONSIN

CITY           SKY/WX    TMP DP  RH WIND       PRES   REMARKS
SUPERIOR ARPT    N/A     61  54  78 W8        29.94S
ASHLAND        SUNNY     63  54  72 W12       29.91S
HAYWARD        MOSUNNY   62  51  67 NW9       29.96R
SIREN          SUNNY     63  50  64 NW12      29.98S
CUMBERLAND     SUNNY     61  50  67 NW14      29.98S
RICE LAKE      SUNNY     62  52  69 NW7       29.99R
CHETEK         MOSUNNY   63  53  70 NW8G16    29.97R
LADYSMITH      PTSUNNY   63  53  70 NW13G22   29.96R
EAU CLAIRE     NOT AVBL
MENOMONIE      SUNNY     64  53  68 NW13G20   29.99R
NEW RICHMOND   SUNNY     64  51  64 NW12G17   30.01R
OSCEOLA        MOSUNNY   64  54  68 NW13      30.04R
$$

WIZ003>005-009-010-017-018-221600-
NORTH CENTRAL WISCONSIN

CITY           SKY/WX    TMP DP  RH WIND       PRES   REMARKS
MANITOWISH WTR PTSUNNY   59  56  88 NW16G24   29.89R
ARBOR VITAE    PTSUNNY   59  53  79 NW14G23   29.88R
WOODRUFF       PTSUNNY   59  53  79 NW14G23   29.88R
RHINELANDER    PTSUNNY   63  53  70 W13       29.89R
EAGLE RIVER    PTSUNNY   61  51  70 W13       29.86R
LAND O LAKES   CLOUDY    59  53  81 NW10G17   29.87R
PHILLIPS       CLOUDY    59  52  78 NW12G24   29.92R
TOMAHAWK         N/A     58  51  77 NW7G20    29.91R
MEDFORD        PTSUNNY   62  53  74 NW13G20   29.93R
MERRILL        PTSUNNY   63  54  72 NW10      29.90R
$$

WIZ029-030-035-036-043>047-221600-
CENTRAL WISCONSIN

CITY           SKY/WX    TMP DP  RH WIND       PRES   REMARKS
WAUSAU         MOSUNNY   65  52  62 NW15G21   29.89R
MOSINEE        MOSUNNY   63  55  77 NW13      29.91R
MARSHFIELD     PTSUNNY   65  53  65 NW16G24   29.92R
STEVENS POINT  MOSUNNY   64  53  66 NW13      29.89R
WAUPACA        MOSUNNY   70  55  57 NW14      29.87R
WAUTOMA        MOSUNNY   69  57  65 NW10G18   29.90R
WISC RAPIDS    SUNNY     69  55  60 N13       29.92R
CAMP DOUGLAS   NOT AVBL
$$

WIZ011>013-019>022-031-037>040-048>050-221600-
NORTHEAST WISCONSIN

CITY           SKY/WX    TMP DP  RH WIND       PRES   REMARKS
ANTIGO         MOSUNNY   62  54  74 NW10G17   29.87S
SHAWANO        PTSUNNY   68  55  63 NW9       29.84R
OCONTO         SUNNY     67  54  62 NW10G16   29.81R
STURGEON BAY   MOSUNNY   67  57  70 NW13G22   29.81R
GREEN BAY      PTSUNNY   67  56  67 NW16G25   29.84R
MANITOWOC      NOT AVBL
APPLETON       PTSUNNY   66  52  59 NW13      29.84R
CLINTONVILLE   PTSUNNY   66  52  59 NW13G20   29.85R
OSHKOSH        PTSUNNY   68  56  65 NW12G25   29.85R
$$

WIZ032>034-041-042-053>061-221600-
SOUTHWEST WISCONSIN

CITY           SKY/WX    TMP DP  RH WIND       PRES   REMARKS
LA CROSSE      MOSUNNY   71  57  61 NW17      29.96S
SPARTA         MOSUNNY   66  57  73 NW12      29.95R
VIROQUA        PTSUNNY   65  59  81 NW16      29.97R
BOSCOBEL       PTSUNNY   70  58  65 NW13G18   29.95R
PRAIRIE DU CHI PTSUNNY   69  57  65 NW14      29.96R
PLATTEVILLE    PTSUNNY   68  65  90 NW12G18   29.95R
$$

WIZ056-057-062-063-064-067-068-221600-
SOUTH CENTRAL WISCONSIN

CITY           SKY/WX    TMP DP  RH WIND       PRES   REMARKS
REEDSBURG      MOSUNNY   66  59  78 NW10G17   29.91R
BARABOO/DELLS  PTSUNNY   67  57  69 N9G17     29.91R
LONE ROCK      MOSUNNY   70  61  73 NW13      29.92R
MINERAL POINT  PTSUNNY   70  63  78 NW14      29.94R
MADISON        PTSUNNY   71  60  68 NW13G22   29.89R
MIDDLETON      CLOUDY    71  64  77 W14       29.90S
WATERTOWN      CLOUDY    69  65  85 W12G22    29.86S
MONROE         PTSUNNY   68  63  83 W10G17    29.92R
JANESVILLE     MOSUNNY   72  63  73 NW17      29.88F
$$

WIZ051-052-058>065-066-070>072-221600-
SOUTHEAST WISCONSIN

CITY           SKY/WX    TMP DP  RH WIND       PRES   REMARKS
MILWAUKEE      CLOUDY    72  63  73 W12G21    29.84S
WAUKESHA       NOT AVBL
MILWAUKEE/TIMM CLOUDY    70  59  68 W12G17    29.85R
RACINE         CLOUDY    72  64  76 W13G22    29.86S
KENOSHA        CLOUDY    71  62  73 W17G24    29.86S
FOND DU LAC    MOSUNNY   70  59  68 NW21G28   29.85R
SHEBOYGAN      MOSUNNY   72  65  78 W10G18    29.82R
WEST BEND      CLOUDY    68  63  83 W13G21    29.84R
JUNEAU         PTSUNNY   69  61  76 W10G16    29.87S
$$

LSZ147-162-221600-
LAKE SUPERIOR

STATION/POSITION TIME  TEMP    WIND        PRES    WAVE
                       AIR SEA DIR/SP/G            HT/PER
                 (UTC) (F)     (DEG/KT/KT) (MB)    (FT/S)
W MID LAKE BUOY  1350   60 60  280/ 16/ 19 1009.7R   2/ 4
DEVILS ISLAND    1400   60     280/ 15/ 18 1011.8R
SAXON HARBOR     1440   62     290/  8/ 14 1012.2R
$$

LMZ867-665-643>646-221600-
LAKE MICHIGAN

STATION/POSITION TIME  TEMP    WIND        PRES    WAVE
                       AIR SEA DIR/SP/G            HT/PER
                 (UTC) (F)     (DEG/KT/KT) (MB)    (FT/S)
S GREEN BAY BUOY 1430   67 71  310/ 17/ 19 1009.3R
N MID LAKE BUOY  1350   63 68  310/ 23/ 27 1006.7R   3/ 4
NORTHPORT PIER   1440   65     320/ 17/ 25 1008.1R
KEWAUNEE LAKESHO 1430   68     330/  8/ 16 1008.1R
SHEBOYGAN LAKESH 1400   70     280/ 22/ 24 1008.3R
PORT WASHINGTON  1430   72     290/ 13/ 18 1010.5R
ATWATER BUOY     1309   69 66  250/ 16/ 17 1009.8R
MILWAUKEE LAKESH 1430   70     290/ 14/ 16   N/A
S MID LAKE BUOY  1350   71 71  290/ 19/ 21 1009.7R   3/ 5
KENOSHA   LAKESH 1400   70     270/ 14/ 19 1010.8
$$

TC  - TEMPERATURE IN CELSIUS
VSB - VISIBILITY IN STATUTE MILES
WCI - WIND CHILL INDEX
HX  - HEAT INDEX





USA.gov is the U.S. government's official web portal to all federal, state and local government web resources and services.